| time (UTC) | temp C | wind direction | speed KPH | gust KPH | rain 1hr cm | rain 24hr cm | rain mn cm | humidity % | barometer mb |
| 20260508190054 | 27 | 291 | 8.0 | 22.5 | 0.00 | 0.00 | 0.00 | 16 | 1018.1 |
| 20260508185600 | 27 | 316 | 9.7 | 22.5 | 0.00 | 0.00 | 0.00 | 16 | 1018.1 |
| 20260508185055 | 27 | 306 | 11.3 | 22.5 | 0.00 | 0.00 | 0.00 | 15 | 1018.2 |
| 20260508184553 | 27 | 1 | 14.5 | 22.5 | 0.00 | 0.00 | 0.00 | 15 | 1018.1 |
| 20260508184054 | 27 | 288 | 3.2 | 19.3 | 0.00 | 0.00 | 0.00 | 16 | 1018.1 |
| 20260508183554 | 27 | 0 | 4.8 | 19.3 | 0.00 | 0.00 | 0.00 | 16 | 1018.2 |
| 20260508183056 | 27 | 315 | 8.0 | 19.3 | 0.00 | 0.00 | 0.00 | 15 | 1018.2 |
| 20260508182555 | 27 | 0 | 6.4 | 17.7 | 0.00 | 0.00 | 0.00 | 16 | 1018.2 |
| 20260508182054 | 26 | 316 | 8.0 | 20.9 | 0.00 | 0.00 | 0.00 | 16 | 1018.2 |
| 20260508181602 | 27 | 354 | 8.0 | 20.9 | 0.00 | 0.00 | 0.00 | 17 | 1018.3 |
| 20260508181056 | 26 | 282 | 8.0 | 20.9 | 0.00 | 0.00 | 0.00 | 15 | 1018.3 |
| 20260508180554 | 26 | 312 | 9.7 | 20.9 | 0.00 | 0.00 | 0.00 | 19 | 1018.4 |
| 20260508180056 | 26 | 277 | 8.0 | 19.3 | 0.00 | 0.00 | 0.00 | 17 | 1018.5 |
| 20260508175555 | 26 | 359 | 8.0 | 19.3 | 0.00 | 0.00 | 0.00 | 18 | 1018.4 |
| 20260508175056 | 26 | 1 | 8.0 | 19.3 | 0.00 | 0.00 | 0.00 | 18 | 1018.5 |
| 20260508174606 | 26 | 359 | 3.2 | 19.3 | 0.00 | 0.00 | 0.00 | 20 | 1018.6 |
| 20260508174055 | 25 | 0 | 9.7 | 19.3 | 0.00 | 0.00 | 0.00 | 18 | 1018.5 |
| 20260508173556 | 25 | 356 | 6.4 | 19.3 | 0.00 | 0.00 | 0.00 | 21 | 1018.6 |
| 20260508173059 | 25 | 354 | 11.3 | 19.3 | 0.00 | 0.00 | 0.00 | 20 | 1018.5 |
| 20260508172556 | 25 | 10 | 9.7 | 25.7 | 0.00 | 0.00 | 0.00 | 18 | 1018.4 |
| 20260508172055 | 25 | 1 | 8.0 | 25.7 | 0.00 | 0.00 | 0.00 | 19 | 1018.6 |
| 20260508171554 | 25 | 309 | 12.9 | 25.7 | 0.00 | 0.00 | 0.00 | 18 | 1018.7 |
| 20260508171054 | 25 | 359 | 6.4 | 17.7 | 0.00 | 0.00 | 0.00 | 18 | 1018.8 |
| 20260508170555 | 25 | 1 | 8.0 | 19.3 | 0.00 | 0.00 | 0.00 | 19 | 1018.8 |
| 20260508170055 | 25 | 342 | 9.7 | 19.3 | 0.00 | 0.00 | 0.00 | 21 | 1018.8 |
| 20260508165554 | 25 | 7 | 3.2 | 17.7 | 0.00 | 0.00 | 0.00 | 22 | 1018.8 |
| 20260508165054 | 24 | 20 | 9.7 | 19.3 | 0.00 | 0.00 | 0.00 | 23 | 1019.0 |
| 20260508164553 | 23 | 326 | 11.3 | 24.1 | 0.00 | 0.00 | 0.00 | 21 | 1019.1 |
| 20260508164055 | 24 | 359 | 8.0 | 24.1 | 0.00 | 0.00 | 0.00 | 23 | 1019.0 |
| 20260508163554 | 23 | 318 | 9.7 | 20.9 | 0.00 | 0.00 | 0.00 | 22 | 1019.1 |
| 20260508163055 | 23 | 4 | 8.0 | 16.1 | 0.00 | 0.00 | 0.00 | 22 | 1019.1 |
| 20260508162553 | 23 | 332 | 4.8 | 16.1 | 0.00 | 0.00 | 0.00 | 23 | 1019.1 |
| 20260508162053 | 23 | 0 | 8.0 | 16.1 | 0.00 | 0.00 | 0.00 | 24 | 1019.1 |
| 20260508161555 | 22 | 350 | 0.0 | 11.3 | 0.00 | 0.00 | 0.00 | 29 | 1019.1 |
| 20260508161055 | 22 | 0 | 3.2 | 11.3 | 0.00 | 0.00 | 0.00 | 29 | 1019.1 |
| 20260508160558 | 22 | 359 | 6.4 | 11.3 | 0.00 | 0.00 | 0.00 | 29 | 1019.1 |
| 20260508160056 | 22 | 0 | 4.8 | 11.3 | 0.00 | 0.00 | 0.00 | 28 | 1019.1 |
| 20260508155557 | 22 | 18 | 0.0 | 6.4 | 0.00 | 0.00 | 0.00 | 32 | 1019.1 |
| 20260508155055 | 21 | 0 | 0.0 | 0.0 | 0.00 | 0.00 | 0.00 | 32 | 1019.1 |
| 20260508154559 | 21 | 0 | 0.0 | 0.0 | 0.00 | 0.00 | 0.00 | 31 | 1019.1 |
| 20260508154054 | 21 | 0 | 0.0 | 0.0 | 0.00 | 0.00 | 0.00 | 30 | 1019.2 |
| 20260508153555 | 21 | 0 | 0.0 | 0.0 | 0.00 | 0.00 | 0.00 | 30 | 1019.1 |
| 20260508153056 | 20 | 0 | 0.0 | 0.0 | 0.00 | 0.00 | 0.00 | 31 | 1019.3 |
| 20260508152554 | 20 | 0 | 0.0 | 0.0 | 0.00 | 0.00 | 0.00 | 32 | 1019.2 |
| 20260508152053 | 20 | 0 | 0.0 | 0.0 | 0.00 | 0.00 | 0.00 | 32 | 1019.2 |
| 20260508151557 | 20 | 0 | 0.0 | 0.0 | 0.00 | 0.00 | 0.00 | 33 | 1019.3 |
| 20260508151055 | 20 | 0 | 0.0 | 0.0 | 0.00 | 0.00 | 0.00 | 36 | 1019.3 |
| 20260508150553 | 19 | 0 | 0.0 | 0.0 | 0.00 | 0.00 | 0.00 | 35 | 1019.3 |
| 20260508150056 | 19 | 0 | 0.0 | 0.0 | 0.00 | 0.00 | 0.00 | 34 | 1019.3 |
| 20260508145555 | 19 | 0 | 0.0 | 6.4 | 0.00 | 0.00 | 0.00 | 34 | 1019.3 |
| 20260508145056 | 19 | 0 | 0.0 | 6.4 | 0.00 | 0.00 | 0.00 | 35 | 1019.3 |
| 20260508144556 | 19 | 0 | 0.0 | 0.0 | 0.00 | 0.00 | 0.00 | 35 | 1019.3 |
| 20260508144055 | 19 | 0 | 0.0 | 3.2 | 0.00 | 0.00 | 0.00 | 33 | 1019.3 |
| 20260508143552 | 19 | 0 | 0.0 | 3.2 | 0.00 | 0.00 | 0.00 | 33 | 1019.3 |
| 20260508143051 | 18 | 0 | 0.0 | 3.2 | 0.00 | 0.00 | 0.00 | 33 | 1019.2 |
| 20260508142552 | 18 | 0 | 0.0 | 0.0 | 0.00 | 0.00 | 0.00 | 34 | 1019.3 |
| 20260508142055 | 18 | 0 | 0.0 | 0.0 | 0.00 | 0.00 | 0.00 | 36 | 1019.2 |
| 20260508141614 | 18 | 0 | 0.0 | 0.0 | 0.00 | 0.00 | 0.00 | 36 | 1019.3 |
| 20260508141055 | 17 | 0 | 0.0 | 0.0 | 0.00 | 0.00 | 0.00 | 35 | 1019.3 |
| 20260508140554 | 17 | 0 | 0.0 | 0.0 | 0.00 | 0.00 | 0.00 | 36 | 1019.2 |
| 20260508140055 | 17 | 0 | 0.0 | 0.0 | 0.00 | 0.00 | 0.00 | 37 | 1019.2 |
| 20260508135555 | 16 | 0 | 0.0 | 0.0 | 0.00 | 0.00 | 0.00 | 39 | 1019.0 |
| 20260508135054 | 16 | 0 | 0.0 | 0.0 | 0.00 | 0.00 | 0.00 | 42 | 1019.0 |
| 20260508134612 | 15 | 0 | 0.0 | 0.0 | 0.00 | 0.00 | 0.00 | 44 | 1018.9 |
| 20260508134054 | 14 | 0 | 0.0 | 0.0 | 0.00 | 0.00 | 0.00 | 49 | 1018.9 |
| 20260508133553 | 13 | 0 | 0.0 | 0.0 | 0.00 | 0.00 | 0.00 | 53 | 1018.8 |
| 20260508133100 | 12 | 0 | 0.0 | 0.0 | 0.00 | 0.00 | 0.00 | 52 | 1018.8 |
| 20260508132555 | 12 | 0 | 0.0 | 0.0 | 0.00 | 0.00 | 0.00 | 56 | 1018.7 |
| 20260508132055 | 11 | 0 | 0.0 | 0.0 | 0.00 | 0.00 | 0.00 | 56 | 1018.6 |
| 20260508131557 | 11 | 0 | 0.0 | 0.0 | 0.00 | 0.00 | 0.00 | 56 | 1018.6 |
| 20260508131055 | 10 | 0 | 0.0 | 0.0 | 0.00 | 0.00 | 0.00 | 60 | 1018.6 |
| 20260508130554 | 10 | 0 | 0.0 | 0.0 | 0.00 | 0.00 | 0.00 | 60 | 1018.6 |
| 20260508130053 | 9 | 0 | 0.0 | 0.0 | 0.00 | 0.00 | 0.00 | 60 | 1018.5 |
| 20260508125554 | 9 | 0 | 0.0 | 0.0 | 0.00 | 0.00 | 0.00 | 58 | 1018.6 |
| 20260508125053 | 9 | 0 | 0.0 | 0.0 | 0.00 | 0.00 | 0.00 | 58 | 1018.5 |
| 20260508124604 | 9 | 0 | 0.0 | 0.0 | 0.00 | 0.00 | 0.00 | 58 | 1018.5 |
| 20260508124053 | 8 | 0 | 0.0 | 0.0 | 0.00 | 0.00 | 0.00 | 59 | 1018.4 |
| 20260508123555 | 8 | 0 | 0.0 | 0.0 | 0.00 | 0.00 | 0.00 | 59 | 1018.4 |
| 20260508123054 | 9 | 0 | 0.0 | 0.0 | 0.00 | 0.00 | 0.00 | 58 | 1018.4 |
| 20260508122556 | 8 | 0 | 0.0 | 0.0 | 0.00 | 0.00 | 0.00 | 58 | 1018.2 |
| 20260508122057 | 8 | 0 | 0.0 | 0.0 | 0.00 | 0.00 | 0.00 | 60 | 1018.1 |
| 20260508121601 | 8 | 0 | 0.0 | 0.0 | 0.00 | 0.00 | 0.00 | 62 | 1018.2 |
| 20260508121054 | 8 | 0 | 0.0 | 0.0 | 0.00 | 0.00 | 0.00 | 61 | 1018.2 |
| 20260508120557 | 8 | 0 | 0.0 | 0.0 | 0.00 | 0.00 | 0.00 | 60 | 1018.2 |
| 20260508120058 | 8 | 0 | 0.0 | 0.0 | 0.00 | 0.00 | 0.00 | 58 | 1018.2 |
| 20260508115555 | 9 | 0 | 0.0 | 0.0 | 0.00 | 0.00 | 0.00 | 56 | 1018.1 |
| 20260508115054 | 10 | 0 | 0.0 | 0.0 | 0.00 | 0.00 | 0.00 | 55 | 1018.1 |
| 20260508114557 | 10 | 0 | 0.0 | 0.0 | 0.00 | 0.00 | 0.00 | 55 | 1018.1 |
| 20260508114055 | 10 | 0 | 0.0 | 0.0 | 0.00 | 0.00 | 0.00 | 55 | 1018.0 |
| 20260508113552 | 10 | 0 | 0.0 | 0.0 | 0.00 | 0.00 | 0.00 | 55 | 1018.0 |
| 20260508113107 | 10 | 0 | 0.0 | 0.0 | 0.00 | 0.00 | 0.00 | 54 | 1018.0 |
| 20260508112552 | 10 | 0 | 0.0 | 0.0 | 0.00 | 0.00 | 0.00 | 53 | 1018.1 |
| 20260508112052 | 10 | 0 | 0.0 | 0.0 | 0.00 | 0.00 | 0.00 | 52 | 1017.9 |
| 20260508111604 | 11 | 0 | 0.0 | 0.0 | 0.00 | 0.00 | 0.00 | 52 | 1017.9 |
| 20260508111054 | 11 | 0 | 0.0 | 0.0 | 0.00 | 0.00 | 0.00 | 51 | 1017.9 |
| 20260508110555 | 11 | 0 | 0.0 | 0.0 | 0.00 | 0.00 | 0.00 | 48 | 1017.9 |
| 20260508110101 | 12 | 0 | 0.0 | 0.0 | 0.00 | 0.00 | 0.00 | 48 | 1017.8 |
| 20260508105552 | 12 | 0 | 0.0 | 1.6 | 0.00 | 0.00 | 0.00 | 46 | 1017.8 |
| 20260508105056 | 12 | 0 | 0.0 | 1.6 | 0.00 | 0.00 | 0.00 | 45 | 1017.7 |
| 20260508104557 | 13 | 0 | 0.0 | 0.0 | 0.00 | 0.00 | 0.00 | 44 | 1017.8 |
| 20260508104055 | 13 | 0 | 0.0 | 0.0 | 0.00 | 0.00 | 0.00 | 43 | 1017.7 |
| 20260508103555 | 13 | 0 | 0.0 | 0.0 | 0.00 | 0.00 | 0.00 | 42 | 1017.7 |
| 20260508103055 | 13 | 0 | 0.0 | 0.0 | 0.00 | 0.00 | 0.00 | 43 | 1017.6 |
| 20260508102554 | 13 | 0 | 0.0 | 0.0 | 0.00 | 0.00 | 0.00 | 43 | 1017.6 |
| 20260508102057 | 13 | 0 | 0.0 | 0.0 | 0.00 | 0.00 | 0.00 | 44 | 1017.7 |
| 20260508101604 | 13 | 0 | 0.0 | 0.0 | 0.00 | 0.00 | 0.00 | 43 | 1017.6 |
| 20260508101056 | 13 | 0 | 0.0 | 0.0 | 0.00 | 0.00 | 0.00 | 44 | 1017.7 |
| 20260508100554 | 13 | 0 | 0.0 | 0.0 | 0.00 | 0.00 | 0.00 | 42 | 1017.7 |
| 20260508100057 | 14 | 0 | 0.0 | 0.0 | 0.00 | 0.00 | 0.00 | 42 | 1017.7 |
| 20260508095554 | 14 | 0 | 0.0 | 0.0 | 0.00 | 0.00 | 0.00 | 42 | 1017.7 |
| 20260508095054 | 14 | 0 | 0.0 | 8.0 | 0.00 | 0.00 | 0.00 | 40 | 1017.6 |
| 20260508094600 | 14 | 0 | 1.6 | 8.0 | 0.00 | 0.00 | 0.00 | 40 | 1017.7 |
| 20260508094054 | 14 | 0 | 0.0 | 0.0 | 0.00 | 0.00 | 0.00 | 40 | 1017.5 |
| 20260508093551 | 14 | 0 | 0.0 | 0.0 | 0.00 | 0.00 | 0.00 | 41 | 1017.6 |
| 20260508093136 | 14 | 0 | 0.0 | 0.0 | 0.00 | 0.00 | 0.00 | 41 | 1017.7 |
| 20260508092554 | 14 | 0 | 0.0 | 0.0 | 0.00 | 0.00 | 0.00 | 41 | 1017.7 |
| 20260508092055 | 13 | 0 | 0.0 | 0.0 | 0.00 | 0.00 | 0.00 | 42 | 1017.6 |
| 20260508091556 | 13 | 0 | 0.0 | 0.0 | 0.00 | 0.00 | 0.00 | 44 | 1017.7 |
| 20260508091058 | 13 | 0 | 0.0 | 0.0 | 0.00 | 0.00 | 0.00 | 44 | 1017.6 |
| 20260508090555 | 12 | 0 | 0.0 | 0.0 | 0.00 | 0.00 | 0.00 | 45 | 1017.7 |
| 20260508090056 | 12 | 0 | 0.0 | 0.0 | 0.00 | 0.00 | 0.00 | 47 | 1017.7 |
| 20260508085554 | 12 | 0 | 0.0 | 0.0 | 0.00 | 0.00 | 0.00 | 47 | 1017.7 |
| 20260508085054 | 12 | 0 | 0.0 | 0.0 | 0.00 | 0.00 | 0.00 | 48 | 1017.6 |
| 20260508084554 | 12 | 0 | 0.0 | 0.0 | 0.00 | 0.00 | 0.00 | 47 | 1017.7 |
| 20260508084055 | 12 | 0 | 0.0 | 0.0 | 0.00 | 0.00 | 0.00 | 46 | 1017.7 |
| 20260508083554 | 13 | 0 | 0.0 | 0.0 | 0.00 | 0.00 | 0.00 | 46 | 1017.7 |
| 20260508083108 | 13 | 0 | 0.0 | 0.0 | 0.00 | 0.00 | 0.00 | 45 | 1017.7 |
| 20260508082558 | 13 | 0 | 0.0 | 0.0 | 0.00 | 0.00 | 0.00 | 44 | 1017.9 |
| 20260508082056 | 15 | 0 | 0.0 | 8.0 | 0.00 | 0.00 | 0.00 | 41 | 1018.0 |
| 20260508081603 | 15 | 0 | 0.0 | 8.0 | 0.00 | 0.00 | 0.00 | 41 | 1018.0 |
| 20260508081055 | 15 | 163 | 6.4 | 8.0 | 0.00 | 0.00 | 0.00 | 41 | 1018.0 |
| 20260508080555 | 14 | 0 | 0.0 | 0.0 | 0.00 | 0.00 | 0.00 | 43 | 1018.1 |
| 20260508080054 | 14 | 0 | 0.0 | 0.0 | 0.00 | 0.00 | 0.00 | 43 | 1018.3 |
| 20260508075555 | 14 | 0 | 0.0 | 0.0 | 0.00 | 0.00 | 0.00 | 43 | 1018.3 |
| 20260508075059 | 13 | 0 | 0.0 | 0.0 | 0.00 | 0.00 | 0.00 | 43 | 1018.2 |
| 20260508074555 | 13 | 0 | 0.0 | 0.0 | 0.00 | 0.00 | 0.00 | 43 | 1018.4 |
| 20260508074056 | 13 | 0 | 0.0 | 9.7 | 0.00 | 0.00 | 0.00 | 43 | 1018.5 |
| 20260508073554 | 13 | 0 | 0.0 | 12.9 | 0.00 | 0.00 | 0.00 | 43 | 1018.4 |
| 20260508073057 | 13 | 110 | 3.2 | 12.9 | 0.00 | 0.00 | 0.00 | 42 | 1018.4 |
| 20260508072555 | 13 | 107 | 3.2 | 8.0 | 0.00 | 0.00 | 0.00 | 42 | 1018.4 |
| 20260508072056 | 14 | 98 | 0.0 | 0.0 | 0.00 | 0.00 | 0.00 | 42 | 1018.4 |
| 20260508071559 | 15 | 0 | 0.0 | 0.0 | 0.00 | 0.00 | 0.00 | 40 | 1018.4 |
| 20260508071055 | 16 | 0 | 0.0 | 4.8 | 0.00 | 0.00 | 0.00 | 36 | 1018.3 |
| 20260508070555 | 16 | 0 | 0.0 | 4.8 | 0.00 | 0.00 | 0.00 | 32 | 1018.3 |
| 20260508070101 | 16 | 0 | 0.0 | 4.8 | 0.00 | 0.00 | 0.00 | 33 | 1018.3 |
| 20260508065557 | 16 | 0 | 0.0 | 1.6 | 0.00 | 0.00 | 0.00 | 34 | 1018.2 |
| 20260508065055 | 16 | 0 | 0.0 | 0.0 | 0.00 | 0.00 | 0.00 | 34 | 1018.3 |
| 20260508064603 | 16 | 0 | 0.0 | 0.0 | 0.00 | 0.00 | 0.00 | 32 | 1018.2 |
| 20260508064055 | 17 | 0 | 0.0 | 0.0 | 0.00 | 0.00 | 0.00 | 31 | 1018.2 |
| 20260508063555 | 17 | 0 | 0.0 | 0.0 | 0.00 | 0.00 | 0.00 | 31 | 1018.2 |
| 20260508063059 | 17 | 0 | 0.0 | 0.0 | 0.00 | 0.00 | 0.00 | 31 | 1018.2 |
| 20260508062555 | 17 | 0 | 0.0 | 0.0 | 0.00 | 0.00 | 0.00 | 31 | 1018.2 |
| 20260508062055 | 17 | 0 | 0.0 | 4.8 | 0.00 | 0.00 | 0.00 | 32 | 1018.1 |
| 20260508061556 | 17 | 0 | 0.0 | 4.8 | 0.00 | 0.00 | 0.00 | 32 | 1018.2 |
| 20260508061055 | 17 | 0 | 0.0 | 0.0 | 0.00 | 0.00 | 0.00 | 32 | 1018.1 |
| 20260508060556 | 17 | 0 | 0.0 | 1.6 | 0.00 | 0.00 | 0.00 | 32 | 1018.1 |
| 20260508060057 | 17 | 0 | 0.0 | 1.6 | 0.00 | 0.00 | 0.00 | 32 | 1018.2 |
| 20260508055555 | 18 | 0 | 0.0 | 0.0 | 0.00 | 0.00 | 0.00 | 30 | 1018.2 |
| 20260508055055 | 18 | 0 | 0.0 | 6.4 | 0.00 | 0.00 | 0.00 | 30 | 1018.2 |
| 20260508054556 | 18 | 0 | 0.0 | 6.4 | 0.00 | 0.00 | 0.00 | 29 | 1018.2 |
| 20260508054056 | 18 | 0 | 0.0 | 9.7 | 0.00 | 0.00 | 0.00 | 29 | 1018.3 |
| 20260508053555 | 18 | 0 | 0.0 | 9.7 | 0.00 | 0.00 | 0.00 | 29 | 1018.2 |
| 20260508053055 | 19 | 0 | 0.0 | 0.0 | 0.00 | 0.00 | 0.00 | 29 | 1018.2 |
| 20260508052557 | 19 | 0 | 0.0 | 0.0 | 0.00 | 0.00 | 0.00 | 29 | 1018.1 |
| 20260508052053 | 18 | 0 | 0.0 | 0.0 | 0.00 | 0.00 | 0.00 | 29 | 1018.1 |
| 20260508051556 | 18 | 0 | 0.0 | 0.0 | 0.00 | 0.00 | 0.00 | 31 | 1018.2 |
| 20260508051055 | 18 | 0 | 0.0 | 1.6 | 0.00 | 0.00 | 0.00 | 30 | 1018.2 |
| 20260508050555 | 18 | 0 | 0.0 | 1.6 | 0.00 | 0.00 | 0.00 | 32 | 1018.2 |
| 20260508050059 | 18 | 0 | 0.0 | 0.0 | 0.00 | 0.00 | 0.00 | 31 | 1018.2 |
| 20260508045554 | 18 | 0 | 0.0 | 0.0 | 0.00 | 0.00 | 0.00 | 30 | 1018.2 |
| 20260508045057 | 19 | 0 | 0.0 | 0.0 | 0.00 | 0.00 | 0.00 | 29 | 1018.1 |
| 20260508044554 | 19 | 0 | 0.0 | 0.0 | 0.00 | 0.00 | 0.00 | 29 | 1018.0 |
| 20260508044056 | 19 | 0 | 0.0 | 0.0 | 0.00 | 0.00 | 0.00 | 29 | 1017.9 |
| 20260508043556 | 19 | 0 | 0.0 | 0.0 | 0.00 | 0.00 | 0.00 | 29 | 1017.7 |
| 20260508043107 | 19 | 0 | 0.0 | 0.0 | 0.00 | 0.00 | 0.00 | 29 | 1017.7 |
| 20260508042555 | 19 | 0 | 0.0 | 0.0 | 0.00 | 0.00 | 0.00 | 29 | 1017.7 |
| 20260508042055 | 19 | 0 | 0.0 | 0.0 | 0.00 | 0.00 | 0.00 | 30 | 1017.8 |
| 20260508041556 | 19 | 0 | 0.0 | 0.0 | 0.00 | 0.00 | 0.00 | 30 | 1017.8 |
| 20260508041055 | 19 | 0 | 0.0 | 0.0 | 0.00 | 0.00 | 0.00 | 29 | 1017.7 |
| 20260508040555 | 20 | 0 | 0.0 | 0.0 | 0.00 | 0.00 | 0.00 | 29 | 1017.9 |
| 20260508040057 | 20 | 0 | 0.0 | 0.0 | 0.00 | 0.00 | 0.00 | 29 | 1017.7 |
| 20260508035554 | 20 | 0 | 0.0 | 0.0 | 0.00 | 0.00 | 0.00 | 28 | 1017.7 |
| 20260508035055 | 20 | 0 | 0.0 | 0.0 | 0.00 | 0.00 | 0.00 | 29 | 1017.7 |
| 20260508034556 | 20 | 0 | 0.0 | 0.0 | 0.00 | 0.00 | 0.00 | 28 | 1017.7 |
| 20260508034054 | 20 | 0 | 0.0 | 0.0 | 0.00 | 0.00 | 0.00 | 28 | 1017.6 |
| 20260508033556 | 20 | 0 | 0.0 | 0.0 | 0.00 | 0.00 | 0.00 | 27 | 1017.6 |
| 20260508033058 | 20 | 0 | 0.0 | 0.0 | 0.00 | 0.00 | 0.00 | 28 | 1017.7 |
| 20260508032555 | 20 | 0 | 0.0 | 12.9 | 0.00 | 0.00 | 0.00 | 27 | 1017.7 |
| 20260508032057 | 20 | 0 | 1.6 | 12.9 | 0.00 | 0.00 | 0.00 | 28 | 1017.7 |
| 20260508031555 | 20 | 237 | 0.0 | 9.7 | 0.00 | 0.00 | 0.00 | 29 | 1017.8 |
| 20260508031054 | 20 | 0 | 0.0 | 0.0 | 0.00 | 0.00 | 0.00 | 29 | 1017.7 |
| 20260508030553 | 20 | 0 | 0.0 | 9.7 | 0.00 | 0.00 | 0.00 | 28 | 1017.5 |
| 20260508030058 | 20 | 0 | 0.0 | 12.9 | 0.00 | 0.00 | 0.00 | 28 | 1017.5 |
| 20260508025552 | 20 | 138 | 4.8 | 16.1 | 0.00 | 0.00 | 0.00 | 28 | 1017.5 |
| 20260508025054 | 20 | 98 | 6.4 | 16.1 | 0.00 | 0.00 | 0.00 | 28 | 1017.6 |
| 20260508024557 | 20 | 0 | 6.4 | 27.4 | 0.00 | 0.00 | 0.00 | 24 | 1017.6 |
| 20260508024053 | 20 | 0 | 0.0 | 38.6 | 0.00 | 0.00 | 0.00 | 27 | 1017.8 |
| 20260508023554 | 20 | 92 | 16.1 | 38.6 | 0.00 | 0.00 | 0.00 | 28 | 1018.3 |
| 20260508023057 | 20 | 122 | 27.4 | 49.9 | 0.00 | 0.00 | 0.00 | 31 | 1018.5 |
| 20260508022554 | 20 | 141 | 33.8 | 49.9 | 0.00 | 0.00 | 0.00 | 31 | 1018.7 |
| 20260508022055 | 20 | 103 | 37.0 | 49.9 | 0.00 | 0.00 | 0.00 | 30 | 1018.3 |
| 20260508021554 | 21 | 101 | 29.0 | 49.9 | 0.00 | 0.00 | 0.00 | 27 | 1018.0 |
| 20260508021054 | 21 | 0 | 4.8 | 57.9 | 0.00 | 0.00 | 0.00 | 23 | 1017.3 |
| 20260508020556 | 21 | 236 | 6.4 | 57.9 | 0.00 | 0.00 | 0.00 | 26 | 1017.0 |
| 20260508020056 | 22 | 42 | 22.5 | 57.9 | 0.00 | 0.00 | 0.00 | 26 | 1018.0 |
| 20260508015554 | 22 | 65 | 9.7 | 45.1 | 0.00 | 0.00 | 0.00 | 20 | 1016.3 |
| 20260508015054 | 22 | 50 | 19.3 | 45.1 | 0.00 | 0.00 | 0.00 | 19 | 1016.4 |
| 20260508014555 | 23 | 51 | 29.0 | 45.1 | 0.00 | 0.00 | 0.00 | 19 | 1015.9 |
| 20260508014055 | 23 | 32 | 12.9 | 27.4 | 0.00 | 0.00 | 0.00 | 20 | 1015.7 |
| 20260508013554 | 23 | 18 | 0.0 | 9.7 | 0.00 | 0.00 | 0.00 | 22 | 1015.5 |
| 20260508013053 | 23 | 18 | 0.0 | 9.7 | 0.00 | 0.00 | 0.00 | 25 | 1015.4 |
| 20260508012555 | 24 | 4 | 0.0 | 11.3 | 0.00 | 0.00 | 0.00 | 23 | 1015.4 |
| 20260508012055 | 24 | 0 | 1.6 | 11.3 | 0.00 | 0.00 | 0.00 | 21 | 1015.4 |
| 20260508011559 | 24 | 0 | 1.6 | 11.3 | 0.00 | 0.00 | 0.00 | 22 | 1015.4 |
| 20260508011054 | 24 | 1 | 4.8 | 14.5 | 0.00 | 0.00 | 0.00 | 19 | 1015.3 |
| 20260508010556 | 24 | 359 | 6.4 | 14.5 | 0.00 | 0.00 | 0.00 | 19 | 1015.3 |
| 20260508010058 | 25 | 0 | 4.8 | 11.3 | 0.00 | 0.00 | 0.00 | 20 | 1015.2 |
| 20260508005554 | 25 | 3 | 0.0 | 14.5 | 0.00 | 0.00 | 0.00 | 23 | 1015.1 |
| 20260508005057 | 25 | 0 | 3.2 | 14.5 | 0.00 | 0.00 | 0.00 | 20 | 1015.2 |
| 20260508004600 | 25 | 359 | 6.4 | 16.1 | 0.00 | 0.00 | 0.00 | 20 | 1015.1 |
| 20260508004054 | 25 | 359 | 9.7 | 16.1 | 0.00 | 0.00 | 0.00 | 18 | 1015.1 |
| 20260508003552 | 25 | 349 | 6.4 | 16.1 | 0.00 | 0.00 | 0.00 | 20 | 1014.9 |
| 20260508003059 | 25 | 1 | 8.0 | 17.7 | 0.00 | 0.00 | 0.00 | 21 | 1015.0 |
| 20260508002552 | 25 | 11 | 8.0 | 17.7 | 0.00 | 0.00 | 0.00 | 20 | 1015.0 |
| 20260508002055 | 25 | 356 | 8.0 | 20.9 | 0.00 | 0.00 | 0.00 | 20 | 1014.9 |
| 20260508001555 | 25 | 359 | 12.9 | 20.9 | 0.00 | 0.00 | 0.00 | 20 | 1014.9 |
| 20260508001055 | 25 | 359 | 11.3 | 19.3 | 0.00 | 0.00 | 0.00 | 20 | 1014.9 |
| 20260508000556 | 25 | 357 | 9.7 | 16.1 | 0.00 | 0.00 | 0.00 | 18 | 1015.0 |
| 20260508000054 | 25 | 0 | 6.4 | 16.1 | 0.00 | 0.00 | 0.00 | 19 | 1015.0 |
| 20260507235555 | 25 | 13 | 8.0 | 16.1 | 0.00 | 0.00 | 0.00 | 20 | 1014.9 |
| 20260507235055 | 25 | 5 | 4.8 | 17.7 | 0.00 | 0.00 | 0.00 | 17 | 1015.0 |
| 20260507234556 | 25 | 327 | 4.8 | 17.7 | 0.00 | 0.00 | 0.00 | 18 | 1014.9 |
| 20260507234056 | 24 | 298 | 3.2 | 17.7 | 0.00 | 0.00 | 0.00 | 18 | 1014.9 |
| 20260507233558 | 24 | 338 | 8.0 | 17.7 | 0.00 | 0.00 | 0.00 | 19 | 1014.9 |
| 20260507233053 | 24 | 357 | 8.0 | 19.3 | 0.00 | 0.00 | 0.00 | 17 | 1014.9 |
| 20260507232554 | 24 | 328 | 6.4 | 20.9 | 0.00 | 0.00 | 0.00 | 17 | 1014.9 |
| 20260507232055 | 24 | 360 | 11.3 | 20.9 | 0.00 | 0.00 | 0.00 | 18 | 1014.9 |
| 20260507231557 | 25 | 1 | 12.9 | 22.5 | 0.00 | 0.00 | 0.00 | 19 | 1015.0 |
| 20260507231056 | 25 | 330 | 12.9 | 22.5 | 0.00 | 0.00 | 0.00 | 17 | 1014.9 |
| 20260507230556 | 26 | 359 | 4.8 | 20.9 | 0.00 | 0.00 | 0.00 | 18 | 1014.9 |
| 20260507230104 | 26 | 359 | 14.5 | 20.9 | 0.00 | 0.00 | 0.00 | 19 | 1014.9 |
| 20260507225556 | 26 | 359 | 11.3 | 19.3 | 0.00 | 0.00 | 0.00 | 18 | 1015.0 |
| 20260507225056 | 26 | 0 | 1.6 | 11.3 | 0.00 | 0.00 | 0.00 | 14 | 1015.1 |
| 20260507224556 | 26 | 0 | 3.2 | 11.3 | 0.00 | 0.00 | 0.00 | 15 | 1015.0 |
| 20260507224058 | 26 | 300 | 6.4 | 11.3 | 0.00 | 0.00 | 0.00 | 15 | 1015.0 |
| 20260507223555 | 26 | 354 | 1.6 | 11.3 | 0.00 | 0.00 | 0.00 | 17 | 1015.1 |
| 20260507223101 | 26 | 0 | 0.0 | 11.3 | 0.00 | 0.00 | 0.00 | 16 | 1015.2 |
| 20260507222554 | 26 | 0 | 0.0 | 19.3 | 0.00 | 0.00 | 0.00 | 14 | 1015.2 |
| 20260507222055 | 26 | 259 | 8.0 | 19.3 | 0.00 | 0.00 | 0.00 | 15 | 1015.3 |
| 20260507221556 | 27 | 78 | 4.8 | 12.9 | 0.00 | 0.00 | 0.00 | 15 | 1015.3 |
| 20260507221055 | 26 | 0 | 4.8 | 12.9 | 0.00 | 0.00 | 0.00 | 15 | 1015.3 |
| 20260507220555 | 26 | 0 | 0.0 | 14.5 | 0.00 | 0.00 | 0.00 | 15 | 1015.3 |
| 20260507220054 | 26 | 75 | 1.6 | 14.5 | 0.00 | 0.00 | 0.00 | 15 | 1015.5 |
| 20260507215554 | 26 | 49 | 1.6 | 11.3 | 0.00 | 0.00 | 0.00 | 16 | 1015.5 |
| 20260507215055 | 26 | 0 | 3.2 | 11.3 | 0.00 | 0.00 | 0.00 | 14 | 1015.7 |
| 20260507214616 | 26 | 0 | 6.4 | 9.7 | 0.00 | 0.00 | 0.00 | 15 | 1015.7 |
| 20260507214056 | 26 | 0 | 0.0 | 16.1 | 0.00 | 0.00 | 0.00 | 15 | 1015.7 |
| 20260507213556 | 26 | 53 | 0.0 | 16.1 | 0.00 | 0.00 | 0.00 | 15 | 1015.7 |
| 20260507213106 | 26 | 43 | 4.8 | 17.7 | 0.00 | 0.00 | 0.00 | 15 | 1015.8 |
| 20260507212559 | 26 | 1 | 6.4 | 17.7 | 0.00 | 0.00 | 0.00 | 15 | 1015.8 |
| 20260507212100 | 25 | 0 | 0.0 | 12.9 | 0.00 | 0.00 | 0.00 | 16 | 1015.9 |
| 20260507211607 | 25 | 0 | 0.0 | 12.9 | 0.00 | 0.00 | 0.00 | 17 | 1016.0 |
| 20260507211055 | 26 | 27 | 3.2 | 14.5 | 0.00 | 0.00 | 0.00 | 16 | 1016.0 |
| 20260507210554 | 26 | 0 | 4.8 | 14.5 | 0.00 | 0.00 | 0.00 | 16 | 1016.0 |
| 20260507210056 | 25 | 1 | 1.6 | 16.1 | 0.00 | 0.00 | 0.00 | 17 | 1016.1 |
| 20260507205556 | 25 | 0 | 4.8 | 16.1 | 0.00 | 0.00 | 0.00 | 15 | 1016.1 |
| 20260507205053 | 25 | 0 | 1.6 | 16.1 | 0.00 | 0.00 | 0.00 | 17 | 1016.2 |
| 20260507204607 | 25 | 23 | 3.2 | 16.1 | 0.00 | 0.00 | 0.00 | 16 | 1016.2 |
| 20260507204054 | 25 | 0 | 4.8 | 12.9 | 0.00 | 0.00 | 0.00 | 16 | 1016.2 |
| 20260507203552 | 26 | 0 | 0.0 | 12.9 | 0.00 | 0.00 | 0.00 | 17 | 1016.3 |
| 20260507203059 | 25 | 297 | 8.0 | 14.5 | 0.00 | 0.00 | 0.00 | 16 | 1016.3 |
| 20260507202550 | 25 | 264 | 6.4 | 17.7 | 0.00 | 0.00 | 0.00 | 17 | 1016.3 |
| 20260507202053 | 24 | 1 | 6.4 | 17.7 | 0.00 | 0.00 | 0.00 | 17 | 1016.4 |
| 20260507201553 | 24 | 360 | 8.0 | 17.7 | 0.00 | 0.00 | 0.00 | 20 | 1016.5 |
| 20260507201054 | 23 | 295 | 4.8 | 12.9 | 0.00 | 0.00 | 0.00 | 18 | 1016.7 |
| 20260507200558 | 23 | 294 | 0.0 | 9.7 | 0.00 | 0.00 | 0.00 | 19 | 1016.8 |
| 20260507200054 | 23 | 0 | 1.6 | 9.7 | 0.00 | 0.00 | 0.00 | 19 | 1016.9 |
| 20260507195552 | 23 | 0 | 0.0 | 12.9 | 0.00 | 0.00 | 0.00 | 21 | 1017.0 |
| 20260507195051 | 23 | 10 | 6.4 | 12.9 | 0.00 | 0.00 | 0.00 | 23 | 1017.1 |
| 20260507194633 | 23 | 0 | 4.8 | 11.3 | 0.00 | 0.00 | 0.00 | 20 | 1017.1 |
| 20260507194052 | 24 | 359 | 3.2 | 12.9 | 0.00 | 0.00 | 0.00 | 19 | 1017.1 |
| 20260507193552 | 24 | 0 | 0.0 | 19.3 | 0.00 | 0.00 | 0.00 | 17 | 1017.1 |
| 20260507193053 | 25 | 202 | 8.0 | 27.4 | 0.00 | 0.00 | 0.00 | 17 | 1017.2 |
| 20260507192550 | 25 | 156 | 4.8 | 27.4 | 0.00 | 0.00 | 0.00 | 17 | 1017.2 |
| 20260507192051 | 25 | 183 | 6.4 | 27.4 | 0.00 | 0.00 | 0.00 | 17 | 1017.3 |
| 20260507191555 | 25 | 310 | 6.4 | 19.3 | 0.00 | 0.00 | 0.00 | 19 | 1017.3 |
| 20260507191053 | 25 | 115 | 4.8 | 16.1 | 0.00 | 0.00 | 0.00 | 18 | 1017.3 |
| 20260507190552 | 25 | 40 | 4.8 | 16.1 | 0.00 | 0.00 | 0.00 | 20 | 1017.4 |